Theta_e
310 308 308 310 312 316 316 316 315 314 312 311 311 312 314 315 316 316 322 324 320 319 315 320 319 320 320 320 321 321 315 315 319 321 324 325 323 332 345 346 343 342 342 339 336
310 309 308 311 313 316 316 316 316 314 312 311 311 313 314 315 316 316 323 325 319 316 319 321 321 320 320 320 321 319 316 318 322 321 319 322 324 327 345 345 341 337 336 338 335
311 309 308 312 314 316 316 317 316 314 312 311 311 313 314 316 320 329 326 323 317 315 319 320 320 320 321 321 322 322 317 319 323 323 323 322 323 326 337 341 344 338 335 342 338
311 310 308 312 314 316 316 318 316 313 313 311 312 313 315 317 328 325 321 318 316 315 319 320 320 320 320 318 323 321 323 323 324 323 323 320 323 324 331 338 342 344 339 334 341
310 311 309 310 314 316 317 318 318 314 314 313 313 314 316 322 326 319 320 319 315 315 320 321 321 321 318 320 322 323 323 324 324 323 323 323 322 321 327 333 337 337 334 335 343
311 312 310 309 313 316 316 318 318 315 315 314 315 315 317 325 323 320 319 319 321 321 321 321 320 322 323 322 320 323 323 323 323 323 323 322 322 322 323 332 332 333 338 343 341
311 311 310 310 311 315 316 318 318 316 315 315 315 316 324 325 323 322 321 321 321 321 321 321 321 322 322 320 324 323 320 319 321 323 322 323 320 320 323 328 330 330 340 345 344
310 310 310 309 312 315 317 318 318 316 315 316 317 323 329 323 323 322 322 320 319 320 321 321 321 321 322 323 323 323 320 317 317 320 322 321 317 319 323 325 325 332 344 343 342
309 309 310 310 314 314 318 318 318 317 317 318 327 330 331 323 321 323 322 321 320 320 320 321 320 321 322 320 317 319 317 318 321 321 321 321 321 323 325 326 335 343 342 341 341
309 309 309 310 314 315 319 319 319 318 319 321 322 326 327 324 323 323 322 322 321 321 321 321 321 319 318 317 317 323 323 322 321 322 324 324 322 323 326 328 341 340 339 338 339
312 309 309 311 315 316 319 323 324 321 321 326 326 324 324 322 322 322 321 321 322 321 320 322 319 319 323 322 321 322 322 322 323 324 324 324 324 322 325 340 339 337 335 334 331
316 310 309 312 319 318 321 323 321 321 322 323 324 322 322 322 322 321 321 322 322 321 322 322 321 322 323 322 322 322 322 321 324 322 321 323 322 321 329 337 337 335 333 330 323
313 316 312 314 317 321 321 321 320 320 322 325 323 322 321 322 322 322 321 323 322 321 322 320 322 323 322 321 323 323 323 323 323 322 319 320 319 320 334 336 335 332 331 327 323
313 313 316 313 321 321 323 321 320 321 324 327 321 322 321 322 323 321 322 323 323 323 322 323 322 322 322 322 323 322 321 322 323 321 319 319 317 320 333 334 332 330 328 326 325
316 312 314 320 319 321 320 320 320 322 332 323 322 322 322 322 322 321 321 322 322 324 322 321 323 323 323 323 324 324 321 320 321 318 318 318 317 317 332 334 331 329 328 327 324
316 315 313 316 321 323 320 320 321 324 328 324 322 322 321 322 322 322 323 322 322 322 322 322 324 324 323 322 322 321 322 321 320 316 318 319 318 319 329 333 330 328 327 327 326
316 316 313 314 318 321 321 321 323 325 326 324 323 323 320 321 322 323 323 322 321 322 324 324 322 323 323 324 322 321 322 320 319 320 321 322 323 330 330 330 328 326 326 326 326
316 316 319 320 321 322 320 322 327 328 327 325 323 323 322 321 322 324 323 322 324 325 323 324 324 324 324 322 322 322 321 318 321 323 324 322 333 330 328 328 327 326 326 324 324
316 316 317 324 320 320 322 324 326 327 323 324 323 323 323 323 323 323 323 323 325 323 325 323 325 323 324 322 321 322 319 321 322 323 321 320 330 328 327 328 327 326 325 324 324
316 317 324 324 321 319 323 324 325 325 323 323 323 323 323 323 323 322 323 325 324 322 322 323 321 322 323 322 321 320 320 320 319 324 327 323 328 330 328 325 328 327 326 325 324
317 321 324 323 320 322 324 323 325 322 321 324 325 326 326 326 326 325 325 323 323 321 321 321 322 322 321 322 322 319 320 322 319 322 322 323 322 328 326 324 322 323 327 326 324
316 323 321 320 321 323 324 326 323 323 321 321 322 324 324 326 326 325 325 323 321 320 321 323 323 325 324 322 322 321 322 321 319 321 322 324 323 323 322 323 322 321 321 326 326
316 318 320 319 320 321 324 327 323 323 322 323 322 322 323 323 324 324 324 320 319 322 323 321 323 324 324 323 324 325 325 324 321 320 322 322 322 322 324 322 321 320 320 324 326
315 323 323 322 320 323 324 324 323 321 321 322 322 322 323 323 323 324 323 321 320 319 318 320 320 322 322 322 322 323 323 323 323 322 321 322 321 320 322 319 319 319 319 319 323
317 323 323 322 323 322 323 322 323 324 321 320 321 322 322 323 322 322 322 321 320 319 320 319 320 323 322 323 322 322 321 320 319 319 320 318 318 317 319 319 320 319 320 320 322
316 322 321 319 322 321 319 322 323 324 323 323 324 323 323 323 324 325 325 324 326 319 320 321 321 323 324 322 322 322 322 322 319 318 317 316 316 315 318 320 319 319 320 323 323
322 322 320 319 320 323 321 324 324 322 322 321 320 321 323 322 321 321 321 321 322 324 324 324 322 323 323 323 322 322 321 320 319 318 316 315 314 317 317 319 321 324 323 323 321
Wind_Speed
15 13 13 12 10 10 11 12 11 10 8 6 6 5 6 6 6 6 2 4 8 9 2 5 4 4 5 11 11 16 4 6 7 12 6 15 10 26 26 29 28 23 22 17 25
15 13 12 11 8 9 12 13 12 9 6 5 5 5 5 6 7 9 5 6 9 6 5 1 7 6 9 16 12 5 3 7 3 6 7 17 18 12 16 24 17 21 14 9 21
16 13 11 9 7 9 12 13 10 7 4 3 4 5 5 4 2 5 6 7 8 6 5 3 7 8 14 18 23 17 6 6 6 18 17 15 18 13 21 5 25 37 37 4 17
16 13 10 8 7 9 12 12 10 6 3 1 3 4 2 1 4 2 2 3 3 8 7 2 2 6 5 6 23 6 12 7 6 14 12 8 10 10 13 15 23 32 34 22 25
17 13 10 8 6 8 11 10 9 6 3 0 3 3 2 2 4 4 1 1 4 5 1 6 16 14 6 8 16 4 3 15 6 7 5 7 10 8 5 23 25 22 14 18 20
18 14 10 7 6 7 9 8 9 6 2 2 3 4 2 5 1 1 6 5 5 4 6 11 11 16 8 12 8 9 9 10 3 7 5 2 4 5 16 23 23 20 20 20 21
21 15 10 7 6 7 7 7 6 4 3 4 5 3 2 3 1 4 7 8 6 5 11 10 8 10 19 9 17 8 6 9 10 10 2 8 6 9 17 25 24 18 28 29 29
23 16 10 7 6 6 6 5 4 4 4 6 5 4 5 4 6 3 1 2 3 3 4 8 3 10 8 13 9 2 4 5 12 10 8 7 8 13 25 18 15 19 26 25 28
25 18 11 6 6 6 4 5 5 5 5 4 2 5 7 3 8 5 5 5 1 2 4 5 2 8 14 4 5 4 8 7 6 12 6 5 4 8 16 22 25 31 27 23 24
26 19 11 7 6 5 4 4 4 4 1 5 7 7 4 2 4 5 3 1 3 2 6 7 6 2 5 2 4 5 4 8 9 5 5 1 6 5 11 19 28 29 26 22 23
26 20 11 7 6 4 5 3 5 3 8 8 13 3 8 5 6 5 4 5 5 7 6 14 3 5 6 3 6 5 6 7 3 6 5 4 4 11 1 27 25 27 27 21 20
23 20 12 5 5 4 5 9 10 8 13 17 17 7 5 7 6 9 6 7 8 8 12 0 1 3 4 3 2 5 6 8 4 10 7 5 7 9 10 18 25 27 25 20 16
21 18 12 6 0 3 4 6 11 12 5 14 17 12 8 11 9 14 9 9 10 8 5 7 5 5 3 5 6 4 7 7 4 7 8 5 8 8 13 28 30 30 23 21 20
22 17 14 10 4 10 8 6 11 11 2 6 12 13 11 14 2 14 5 6 5 3 7 2 7 5 3 3 4 4 9 10 10 8 2 6 6 4 15 16 22 26 24 20 17
23 21 11 11 9 7 13 10 14 2 2 10 8 14 11 10 13 8 2 4 7 9 4 7 2 3 1 7 8 3 8 7 5 7 5 11 2 6 18 13 14 22 23 17 15
23 23 14 10 7 10 14 11 6 2 6 9 9 7 5 12 7 10 5 4 10 5 8 7 2 3 2 5 3 5 4 7 6 3 2 20 8 5 6 16 12 21 22 16 11
22 22 16 10 5 10 14 8 1 3 5 7 13 9 8 8 8 7 6 6 5 3 5 5 9 4 11 1 6 4 5 4 5 3 7 10 3 4 11 16 20 18 21 16 10
23 21 12 4 2 9 6 3 4 9 11 7 1 5 4 9 8 8 2 6 4 3 2 3 4 3 2 4 2 4 2 4 3 3 6 9 4 3 15 25 26 25 20 14 11
25 21 15 4 2 4 5 2 4 4 7 9 6 1 5 6 4 3 5 6 5 7 5 4 2 1 5 6 5 3 3 3 0 4 2 3 4 5 13 13 20 23 22 18 17
27 26 14 6 8 4 1 5 5 15 6 8 5 5 4 8 7 6 4 4 5 7 8 4 4 3 2 4 6 6 2 4 3 2 3 3 1 5 8 7 14 16 22 21 18
23 12 5 8 6 4 3 6 6 10 6 6 6 7 10 5 7 2 4 10 7 7 8 3 2 6 8 2 3 4 1 2 2 2 2 1 5 6 8 6 7 6 26 25 20
12 4 7 4 6 6 7 7 5 2 8 2 1 5 4 7 7 5 5 5 9 10 4 2 3 2 6 13 5 6 3 3 4 5 2 2 5 6 9 12 10 12 9 23 21
16 11 14 7 3 4 9 13 4 3 2 2 1 3 7 5 4 5 3 9 6 5 3 3 3 2 7 4 5 3 4 4 2 3 3 2 5 4 7 7 8 13 5 9 19
7 4 9 17 13 6 4 6 2 6 2 4 6 9 6 2 3 2 3 5 7 8 12 6 2 3 4 6 4 5 9 6 6 3 5 7 8 6 4 2 9 15 3 2 10
4 7 10 3 5 6 3 6 8 3 6 7 1 5 5 3 5 6 8 7 7 16 5 5 3 3 6 8 11 11 11 12 8 7 5 6 7 7 4 7 7 6 9 11 14
6 6 7 14 11 4 1 5 7 4 3 1 3 7 5 3 2 5 6 6 4 2 7 5 4 4 4 8 11 15 15 15 5 6 6 8 7 7 11 16 16 15 15 17 16
5 7 5 9 7 2 5 7 2 6 7 4 5 6 7 10 13 13 8 6 4 2 1 6 3 1 4 6 10 9 7 6 2 3 4 4 6 7 9 19 23 25 21 15 11
Wind_Direction
344 345 347 348 347 347 345 340 332 320 304 282 266 251 254 260 262 257 244 274 314 314 355 84 37 3 311 279 278 275 27 299 293 28 332 31 56 66 83 77 82 87 113 137 154
349 346 350 349 346 349 344 338 331 323 305 280 255 237 244 259 266 253 248 266 300 277 166 333 292 248 234 257 265 169 146 253 295 49 17 7 33 31 89 91 78 85 100 94 157
355 347 351 349 346 350 349 343 343 334 310 275 234 223 242 283 320 255 248 265 290 221 192 5 345 303 245 264 264 253 217 254 49 45 27 349 20 0 109 53 131 128 110 347 184
356 350 348 348 353 355 356 352 353 349 333 274 211 214 235 195 49 284 267 271 272 198 199 33 301 277 274 254 272 264 275 315 347 51 13 346 16 335 84 152 137 144 161 173 197
354 351 348 348 353 359 360 356 357 359 1 138 178 184 185 259 262 19 103 110 93 135 136 298 284 267 259 275 302 181 326 307 28 9 330 331 348 316 77 140 145 155 164 170 186
358 354 350 349 346 356 359 354 1 10 37 126 147 164 182 302 326 36 97 87 54 32 320 296 287 326 302 317 322 3 357 343 10 288 299 182 291 286 279 164 157 165 168 120 98
3 357 353 354 357 356 360 357 3 29 77 117 125 149 274 0 342 360 34 5 355 286 300 320 299 334 323 322 354 5 6 319 282 249 159 81 323 268 262 155 159 177 101 86 86
6 0 357 5 11 7 9 13 30 71 107 124 105 339 281 204 196 243 224 223 295 292 317 347 338 305 288 305 326 274 272 255 266 203 161 118 274 261 238 123 103 73 73 52 47
9 5 3 10 19 13 38 55 68 94 127 141 50 336 282 294 191 187 215 237 25 269 284 291 290 266 288 270 331 283 242 233 311 135 146 148 275 5 122 116 91 78 66 49 34
9 9 6 14 20 30 90 90 100 128 233 266 266 300 247 161 123 158 243 134 209 257 257 236 231 241 314 53 250 333 292 309 148 178 112 33 305 322 149 114 96 86 74 56 37
10 11 11 21 19 75 87 5 325 257 257 238 287 301 130 113 141 184 183 200 252 243 247 220 139 224 230 60 5 326 343 338 83 141 117 130 275 289 175 105 94 84 74 60 40
6 9 11 22 39 76 2 360 343 310 306 274 267 284 137 180 179 156 192 228 206 231 247 293 247 43 23 95 343 345 324 305 7 20 56 16 290 284 78 99 94 90 77 64 53
359 359 1 1 354 65 344 359 343 317 284 296 216 224 206 225 203 163 213 240 252 273 253 203 154 126 64 336 318 4 36 8 17 4 347 352 292 258 100 103 95 86 82 67 59
355 347 349 331 330 338 337 337 326 344 320 240 207 210 178 223 224 157 223 296 292 297 343 91 114 54 9 300 16 74 12 9 358 12 287 59 287 332 133 113 98 94 82 78 68
348 345 337 337 329 2 355 341 322 302 312 139 175 156 176 221 135 176 153 298 275 323 88 248 54 157 266 64 41 319 31 341 310 296 328 276 285 282 135 112 101 100 100 89 72
339 340 327 305 294 341 338 319 307 9 249 185 140 180 212 225 163 143 179 237 300 310 315 264 209 138 91 39 346 282 308 297 275 193 292 261 179 308 172 131 110 105 105 103 92
331 332 314 280 277 357 321 308 4 228 150 150 162 182 200 199 224 161 192 191 209 183 272 310 235 125 91 349 17 45 24 342 348 7 234 330 307 152 89 115 118 116 115 113 112
325 330 313 295 266 348 302 346 249 268 304 116 122 148 213 216 196 163 113 311 38 302 89 336 343 3 135 84 60 324 174 151 263 324 309 329 101 154 104 110 117 129 132 134 143
322 324 295 233 341 329 307 254 239 337 3 357 151 279 208 253 62 46 156 249 53 46 98 23 100 63 89 69 85 338 343 194 248 277 326 231 68 79 125 130 131 137 148 158 173
325 326 310 215 199 281 211 258 289 302 7 354 332 184 235 239 162 158 238 94 100 84 69 21 338 340 164 163 238 171 216 16 350 222 280 314 355 180 151 132 154 153 158 170 179
326 321 262 164 252 200 220 241 296 63 25 14 358 332 339 9 17 130 71 48 48 111 95 70 107 298 358 230 299 39 351 21 131 122 181 298 292 122 125 131 133 160 176 185 198
335 292 165 181 226 226 236 249 302 106 114 325 33 316 345 354 9 23 33 77 53 55 46 55 108 313 276 288 357 74 38 108 122 287 325 166 268 145 157 167 183 220 234 205 210
326 278 271 222 231 263 291 236 172 38 3 33 245 306 35 19 31 356 11 116 104 81 92 339 4 323 306 19 46 74 320 327 203 133 225 163 261 248 124 79 6 320 88 180 200
316 301 308 225 244 258 323 320 235 116 3 350 344 352 15 10 321 315 326 145 157 122 125 99 130 170 217 268 305 317 309 248 222 194 230 225 256 291 258 41 271 266 163 150 204
248 263 340 311 355 357 2 334 317 143 190 130 282 265 236 224 291 285 233 136 171 142 107 114 182 254 277 303 306 300 287 287 277 258 251 252 270 273 259 223 224 104 82 56 47
263 333 321 303 297 316 313 275 279 275 78 60 321 261 336 234 3 23 32 45 51 246 143 166 207 223 276 306 303 291 295 284 258 286 316 327 329 281 338 79 64 57 55 74 68
270 330 283 286 311 256 244 234 71 57 8 304 334 358 359 36 12 353 358 357 4 44 217 150 164 53 260 308 315 307 258 322 72 44 21 340 272 338 46 57 52 62 58 53 46